This demonstration page uses our WeatherBlox Daily Observations layout. Learn more.

Left ArrowRight Arrow

Hourly Observations for December 8, 2020

Temp ( °F °C ) Dew Point ( °F °C ) Humidity (%) Winds ( mph kmh ) Pressure ( in mb ) Visibility ( mi km ) Precip ( " mm )
12:51 am 00:51 Clear 47 8.3 11 -11.7 23 23 ESE 12 19 30.22 1023 10 16.0934 0 0
1:51 am 01:51 Clear 48 8.9 11 -11.7 22 22 ESE 13 20 30.21 1023 10 16.0934 0 0
2:51 am 02:51 Clear 45 7.2 10 -12.2 24 24 E 12 19 30.22 1023 10 16.0934 0 0
3:51 am 03:51 Clear 44 6.7 10 -12.2 25 25 E 10 17 30.23 1024 10 16.0934 0 0
4:51 am 04:51 Clear 45 7.2 10 -12.2 24 24 ESE 12 19 30.24 1024 10 16.0934 0 0
5:51 am 05:51 Clear 46 7.8 9 -12.8 22 22 ESE 17 28 30.26 1025 10 16.0934 0 0
6:51 am 06:51 Clear 45 7.2 9 -12.8 23 23 E 13 20 30.29 1026 10 16.0934 0 0
7:51 am 07:51 Sunny 47 8.3 9 -12.8 21 21 ESE 13 20 30.3 1026 10 16.0934 0 0
8:51 am 08:51 Sunny 50 10 10 -12.2 20 20 ESE 12 19 30.34 1027 10 16.0934 0 0
9:51 am 09:51 Sunny 54 12.2 14 -10 20 20 SE 10 17 30.33 1027 10 16.0934 0 0
10:51 am 10:51 Sunny 58 14.4 13 -10.6 17 17 SE 9 15 30.32 1027 10 16.0934 0 0
11:51 am 11:51 Sunny 63 17.2 13 -10.6 14 14 SE 8 13 30.27 1025 10 16.0934 0 0
12:51 pm 12:51 Sunny 66 18.9 15 -9.4 14 14 SSE 9 15 30.22 1024 10 16.0934 0 0
1:51 pm 13:51 Sunny 67 19.4 15 -9.4 13 13 S 7 11 30.19 1022 10 16.0934 0 0
2:51 pm 14:51 Sunny 69 20.6 15 -9.4 12 12 VRB 5 7 30.16 1022 10 16.0934 0 0
3:51 pm 15:51 Sunny 70 21.1 14 -10 11 11 VRB 6 9 30.15 1021 10 16.0934 0 0
4:51 pm 16:51 Sunny 66 18.9 15 -9.4 14 14 S 3 6 30.16 1021 10 16.0934 0 0
5:51 pm 17:51 Clear 59 15 12 -11.1 15 15 SE 5 7 30.19 1022 10 16.0934 0 0
6:51 pm 18:51 Clear 56 13.3 10 -12.2 16 16 E 7 11 30.21 1023 10 16.0934 0 0
7:51 pm 19:51 Clear 52 11.1 10 -12.2 18 18 SE 8 13 30.22 1023 10 16.0934 0 0
8:51 pm 20:51 Clear 48 8.9 9 -12.8 20 20 ESE 7 11 30.23 1024 10 16.0934 0 0
9:51 pm 21:51 Clear 47 8.3 10 -12.2 22 22 ESE 7 11 30.23 1024 10 16.0934 0 0
10:51 pm 22:51 Clear 49 9.4 12 -11.1 22 22 ESE 8 13 30.22 1023 10 16.0934 0 0
11:51 pm 23:51 Clear 52 11.1 13 -10.6 21 21 ESE 13 20 30.21 1023 10 16.0934 0 0

Powered by AerisWeather